Location: C.E.K. Mees Observatory
(42.7003°N, 77.4088°W)
Time: 20:06:03
(UTC-04:00)

Tiangong 2 - Pass Details

Date: 14 October 2017
Orbit: 388 x 392 km, 42.8° (Epoch: 18 October)

Event Time Altitude Azimuth Distance (km) Brightness Sun altitude
Exits shadow 04:58:31 20° 86° (E) 966 3.8 -27.0°
Drops below altitude 10° 04:59:39 10° 83° (E) 1,420 4.9 -26.8°
Sets 05:01:44 0° 82° (E) 2,277 6.3 -26.4°
